Location: Cheching
(60.0667°N, 164.2167°W)
Time: 10:20:51
(UTC+00:00)

NOAA 19 - Pass Details

Date: 19 January 2021
Orbit: 840 x 862 km, 99.2° (Epoch: 26 February)

Event Time Altitude Azimuth Distance (km) Brightness Sun altitude
Rises 03:52:16 0° 149° (SSE) 3,433 8.3 -8.6°
Reaches altitude 10° 03:54:39 10° 147° (SSE) 2,498 7.6 -8.9°
Maximum altitude 04:00:10 70° 65° (ENE) 916 5.2 -9.5°
Drops below altitude 10° 04:05:41 10° 343° (NNW) 2,502 7.6 -10.1°
Sets 04:08:04 0° 341° (NNW) 3,439 8.3 -10.4°
